Flag for Netherlands Weather past 2 weeks in Apeldoorn, Netherlands

Now
39 °F

Low clouds.


Feels Like: 39 °F
Forecast: 32 / 40 °F
Wind: 2 mph from Southwest

Location: Deelen

Current Time: Feb 1, 2015 at 2:47:25 PM

Latest Report: Feb 1, 2015 at 1:55 PM


Visibility: N/A

Pressure: 29.24 "Hg

Humidity: 87%

Dew point: 36 °F

Location of ApeldoornLocation

Historic Weather in Apeldoorn — Graph

°F

Apeldoorn temperature yesterday

Maximum temperature yesterday: 37 °F (at 1:25 PM)
Minimum temperature yesterday: 28 °F (at 8:25 AM)
Average temperature yesterday: 33 °F

Past Weeks' High & Low Weather Summary

 TemperatureHumidityPressure
High45 °F (Jan 26, 2:25 PM)100% (Jan 18, 7:55 AM)30.39 "Hg (Jan 18, 7:55 AM)
Low21 °F (Jan 25, 3:25 AM)65% (Jan 17, 4:55 PM)28.68 "Hg (Jan 29, 10:55 PM)
Average34 °F93%29.77 "Hg
* Reported Jan 17 1:25 PM — Feb 1 1:55 PM, Apeldoorn, Weather by CustomWeather, © 2014

Note: Actual official high and low records may vary slightly from our data, if they occured in-between our weather recording intervals... More about our weather records

Advertising

Apeldoorn weather history for previous 24 hours

 ConditionsComfort  
Time TempWeatherWind HumidityBarometerVisibility
1:55 PM
Feb 1
39 °FLow clouds.2 mph87%29.24 "HgN/A
1:25 PM39 °FLow clouds.3 mph93%29.21 "HgN/A
12:55 PM39 °FMore clouds than sun.5 mph87%29.21 "HgN/A
12:25 PM39 °FOvercast.6 mph87%29.21 "HgN/A
11:55 AM37 °FOvercast.6 mph93%29.18 "HgN/A
11:25 AM37 °FFog.7 mph93%29.18 "Hg6 mi
10:55 AM36 °FFog.5 mph100%29.15 "Hg4 mi
10:25 AM36 °FFog.6 mph100%29.15 "Hg3 mi
9:55 AM36 °FFog.6 mph93%29.15 "Hg2 mi
9:25 AM34 °FDrizzle. Partly sunny.6 mph100%29.15 "Hg1 mi
8:55 AM34 °FLight rain. Mostly cloudy.5 mph100%29.12 "Hg1 mi
8:25 AM34 °FLight rain. Mostly cloudy.6 mph100%29.12 "Hg1 mi
7:55 AM34 °FFog.6 mph100%29.12 "Hg1 mi
7:25 AM34 °FFog.7 mph93%29.12 "Hg1 mi
6:55 AM32 °FFog.6 mph100%29.12 "Hg1 mi
6:25 AM32 °FFog.8 mph100%29.12 "Hg1 mi
5:55 AM32 °FFog.7 mph100%29.12 "Hg1 mi
5:25 AM32 °FFog.8 mph100%29.09 "Hg1 mi
4:55 AM32 °FIce fog.7 mph100%29.09 "Hg1 mi
4:25 AM32 °FIce fog.7 mph100%29.09 "Hg1 mi
3:55 AM32 °FIce fog.6 mph100%29.09 "Hg0 mi
3:25 AM32 °FIce fog.7 mph100%29.09 "Hg0 mi
2:55 AM32 °FIce fog.6 mph100%29.09 "Hg0 mi
2:25 AM32 °FIce fog.7 mph100%29.09 "Hg0 mi
1:55 AM32 °FIce fog.6 mph100%29.09 "Hg1 mi
1:25 AM32 °FIce fog.8 mph93%29.09 "Hg1 mi
12:55 AM32 °FIce fog.7 mph100%29.09 "Hg1 mi
12:25 AM32 °FIce fog.6 mph93%29.09 "Hg1 mi
11:55 PM
Jan 31
32 °FIce fog.3 mph93%29.09 "Hg1 mi
11:25 PM32 °FIce fog.3 mph100%29.09 "Hg1 mi
10:55 PM32 °FIce fog.7 mph100%29.09 "Hg2 mi
10:25 PM30 °FIce fog.6 mph100%29.09 "Hg2 mi
9:55 PM30 °FIce fog.6 mph100%29.09 "Hg2 mi
9:25 PM30 °FIce fog.3 mph100%29.09 "Hg1 mi
8:55 PM32 °FIce fog.2 mph93%29.09 "Hg0 mi
8:25 PM32 °FIce fog.1 mph100%29.06 "Hg1 mi
7:55 PM32 °FIce fog.3 mph93%29.06 "Hg2 mi
7:25 PM32 °FIce fog.2 mph93%29.06 "Hg4 mi
6:55 PM32 °FIce fog.5 mph100%29.06 "Hg4 mi
6:25 PM34 °FFog.3 mph93%29.03 "Hg4 mi
5:55 PM34 °FFog.3 mph100%29.03 "Hg4 mi
5:25 PM34 °FFog.2 mph100%29.03 "Hg3 mi
4:55 PM36 °FFog.3 mph93%29.00 "Hg4 mi
4:25 PM36 °FPartly sunny.3 mph93%29.00 "HgN/A
3:55 PM36 °FDrizzle. Partly sunny.9 mph93%29.00 "Hg3 mi
3:25 PM36 °FPartly sunny.3 mph93%29.00 "HgN/A
2:55 PM37 °FOvercast.7 mph87%28.97 "HgN/A
2:25 PM37 °FBroken clouds.8 mph87%28.97 "HgN/A
Weather by CustomWeather, © 2014

See weather overviewHow to use our weather pages